Kenai, AK

7:13 PM AKDT on August 22, 2017 (GMT -0800)
Kenai Municipal

Weather History for PAEN - October, 2013

Change the Weather History Date:

Friday, October 11, 2013

  Actual Average Record
Temperature  
Mean Temperature 40 °F -  
Max Temperature 44 °F 44 °F 57 °F (1969)
Min Temperature 37 °F 31 °F 12 °F (1961)
Degree Days  
Heating Degree Days 24    
Moisture  
Dew Point 39 °F    
Average Humidity 100    
Maximum Humidity 100    
Minimum Humidity 93    
Precipitation  
Precipitation 0.21 in - - ()
Sea Level Pressure  
Sea Level Pressure 29.81 in    
Wind  
Wind Speed 8 mph (NNE)    
Max Wind Speed 15 mph    
Max Gust Speed -    
Visibility 10 miles    
Events Rain    
Averages and records for this station are not official NWS values.
T = Trace of Precipitation, MM = Missing Value Source: NWS Daily Summary

Daily Weather History Graph

Daily Weather History Graph

Search for Another Location

Airport or City:

Trip Planner

Search our weather history database for the weather conditions in past years. The results will help you decide how hot, cold, wet, or windy it might be!

Date:

Astronomy

Oct. 11, 2013 Rise Set
Actual Time 8:36 AM AKDT 7:05 PM AKDT
Civil Twilight 7:54 AM AKDT 7:47 PM AKDT
Nautical Twilight 7:05 AM AKDT 8:36 PM AKDT
Astronomical Twilight 6:15 AM AKDT 9:26 PM AKDT
Moon 4:16 PM AKDT (10/11) No Moon Set
Length of Visible Light 11h 53m
Length of Day
10h 28m
Waxing Crescent, 49% of the Moon is Illuminated
Oct 11
Waxing Crescent
Oct 11
First Quarter
Oct 18
Full
Oct 26
Last Quarter
Nov 3
New

Hourly Weather History & Observations

Time (AKDT) Temp. Windchill Dew Point Humidity Pressure Visibility Wind Dir Wind Speed Gust Speed Precip Events Conditions
12:53 AM 39.0 °F 32.8 °F 39.0 °F 100% 29.72 in 10.0 mi North 9.2 mph - 0.01 in Rain Light Rain
1:27 AM 37.4 °F 29.8 °F 37.4 °F 100% 29.71 in 10.0 mi North 11.5 mph - 0.00 in Rain Light Rain
1:53 AM 37.9 °F 29.2 °F 37.9 °F 100% 29.72 in 10.0 mi North 15.0 mph - 0.01 in Rain Light Rain
2:49 AM 37.4 °F 28.9 °F 37.4 °F 100% 29.72 in 10.0 mi NNE 13.8 mph - 0.01 in Rain Light Rain
2:53 AM 37.9 °F 30.9 °F 37.9 °F 100% 29.73 in 10.0 mi NNE 10.4 mph - 0.01 in Rain Light Rain
3:53 AM 37.0 °F 28.9 °F 37.0 °F 100% 29.73 in 10.0 mi NNE 12.7 mph - 0.02 in Rain Light Rain
4:44 AM 37.4 °F 32.1 °F 37.4 °F 100% 29.74 in 10.0 mi NNE 6.9 mph - 0.02 in Rain Light Rain
4:53 AM 37.0 °F 30.4 °F 37.0 °F 100% 29.75 in 10.0 mi NNE 9.2 mph - 0.03 in Rain Light Rain
5:53 AM 37.0 °F 31.6 °F 37.0 °F 100% 29.76 in 10.0 mi NE 6.9 mph - 0.01 in   Overcast
6:53 AM 37.0 °F 31.6 °F 37.0 °F 100% 29.77 in 8.0 mi NNE 6.9 mph - 0.02 in Rain Light Rain
7:53 AM 37.0 °F 31.0 °F 37.0 °F 100% 29.78 in 10.0 mi NNE 8.1 mph - 0.02 in Rain Light Rain
8:17 AM 37.4 °F 32.8 °F 37.4 °F 100% 29.78 in 10.0 mi NNE 5.8 mph - 0.01 in Rain Light Rain
8:53 AM 37.0 °F 33.3 °F 37.0 °F 100% 29.80 in 10.0 mi NNE 4.6 mph - 0.03 in Rain Light Rain
9:53 AM 37.0 °F 34.5 °F 37.0 °F 100% 29.81 in 6.0 mi ENE 3.5 mph - 0.03 in Rain Light Rain
10:53 AM 37.9 °F 35.5 °F 37.9 °F 100% 29.83 in 10.0 mi North 3.5 mph - 0.01 in Rain Light Rain
11:13 AM 39.2 °F 37.0 °F 39.2 °F 100% 29.83 in 10.0 mi North 3.5 mph - 0.00 in Rain Light Rain
11:44 AM 39.2 °F 37.0 °F 39.2 °F 100% 29.84 in 10.0 mi North 3.5 mph - 0.01 in Rain Light Rain
11:53 AM 39.0 °F 34.8 °F 39.0 °F 100% 29.85 in 10.0 mi North 5.8 mph - 0.01 in   Overcast
12:53 PM 41.0 °F 38.0 °F 41.0 °F 100% 29.87 in 10.0 mi ENE 4.6 mph - N/A   Overcast
1:53 PM 42.1 °F 39.2 °F 42.1 °F 100% 29.87 in 10.0 mi NE 4.6 mph - N/A   Overcast
2:53 PM 43.0 °F - 43.0 °F 100% 29.87 in 10.0 mi Calm Calm - N/A   Overcast
3:48 PM 44.6 °F - 42.8 °F 93% 29.86 in 10.0 mi Calm Calm - N/A   Overcast
3:53 PM 44.1 °F - 43.0 °F 96% 29.87 in 10.0 mi Calm Calm - N/A   Overcast
4:53 PM 44.1 °F 41.5 °F 44.1 °F 100% 29.86 in 10.0 mi North 4.6 mph - 0.00 in   Overcast
5:51 PM 42.8 °F 39.3 °F 42.8 °F 100% 29.85 in 10.0 mi NNE 5.8 mph - N/A   Mostly Cloudy
5:53 PM 42.1 °F 37.7 °F 42.1 °F 100% 29.86 in 10.0 mi NNE 6.9 mph - N/A   Mostly Cloudy
6:03 PM 42.8 °F 38.6 °F 42.8 °F 100% 29.85 in 10.0 mi NNE 6.9 mph - N/A   Mostly Cloudy
6:53 PM 39.9 °F 36.7 °F 39.9 °F 100% 29.86 in 10.0 mi NNE 4.6 mph - N/A   Overcast
7:53 PM 39.0 °F 34.8 °F 39.0 °F 100% 29.85 in 10.0 mi NNE 5.8 mph - N/A   Mostly Cloudy
8:26 PM 37.4 °F 32.8 °F - N/A% 29.84 in 10.0 mi NNE 5.8 mph - N/A   Mostly Cloudy
8:34 PM 37.4 °F 33.8 °F - N/A% 29.85 in 10.0 mi NNE 4.6 mph - N/A   Mostly Cloudy
8:46 PM 37.4 °F 32.1 °F - N/A% 29.85 in 10.0 mi NNE 6.9 mph - N/A   Overcast
8:53 PM 37.9 °F 33.5 °F - N/A% 29.85 in 10.0 mi NNE 5.8 mph - N/A   Overcast
9:53 PM 37.9 °F 34.4 °F - N/A% 29.85 in 10.0 mi NNE 4.6 mph - 0.00 in Rain Light Rain
10:53 PM 37.9 °F 35.5 °F - N/A% 29.84 in 10.0 mi NE 3.5 mph - 0.00 in   Overcast
11:53 PM 37.9 °F 32.1 °F - N/A% 29.84 in 10.0 mi NE 8.1 mph - 0.00 in Rain Light Rain